When you browse on this site, cookies collect data to enhance your experience and personalize the content and advertising you see.
Visit our Privacy Policy to learn more. By continuing to use the site, you agree to this use of cookies and data.
  • In Deutschland
  • Länderverzeichnis
  • Für 7 Tage
  • Wassertemperatur
  • Wetterkarte
  • Widgets
  • user-avatar
    Anmelden

    Stündliche Wetter Obuhovskoe

    Heute, 17 Februar, Montag

    Zeit Temperatur Niederschläge Wind Luftdruck Luftfeuchtigkeit
    00:00 -14°C° 0 mm 2 m/S 765 mmHg 93%
    01:00 -14°C° 0 mm 2 m/S 765 mmHg 93%
    02:00 -14°C° 0 mm 2 m/S 765 mmHg 92%
    03:00 -15°C° 0 mm 2 m/S 765 mmHg 92%
    04:00 -15°C° 0 mm 2 m/S 765 mmHg 94%
    05:00 -15°C° 0 mm 2 m/S 765 mmHg 94%
    06:00 -15°C° 0 mm 2 m/S 764 mmHg 93%
    07:00 -16°C° 0 mm 2 m/S 764 mmHg 93%
    08:00 -14°C° 0 mm 2 m/S 764 mmHg 92%
    09:00 -14°C° 0 mm 3 m/S 765 mmHg 92%
    10:00 -12°C° 0 mm 3 m/S 765 mmHg 91%
    11:00 -10°C° 0 mm 3 m/S 764 mmHg 91%
    12:00 -9°C° 0 mm 3 m/S 764 mmHg 91%
    13:00 -9°C° 0 mm 4 m/S 764 mmHg 90%
    14:00 -8°C° 0 mm 3 m/S 763 mmHg 91%
    15:00 -8°C° 0 mm 3 m/S 763 mmHg 91%
    16:00 -8°C° 0 mm 3 m/S 763 mmHg 91%
    17:00 -9°C° 0 mm 3 m/S 762 mmHg 90%
    18:00 -11°C° 0 mm 4 m/S 762 mmHg 90%
    19:00 -11°C° 0 mm 4 m/S 761 mmHg 89%
    20:00 -12°C° 0 mm 5 m/S 761 mmHg 88%
    21:00 -13°C° 0 mm 5 m/S 760 mmHg 88%
    22:00 -13°C° 0 mm 5 m/S 759 mmHg 87%
    23:00 -13°C° 0 mm 5 m/S 758 mmHg 86%

    Morgen, 18 Februar, Dienstag

    Zeit Temperatur Niederschläge Wind Luftdruck Luftfeuchtigkeit
    00:00 -12°C° 0 mm 6 m/S 757 mmHg 85%
    01:00 -12°C° 0 mm 6 m/S 756 mmHg 84%
    02:00 -13°C° 0 mm 7 m/S 755 mmHg 85%
    03:00 -13°C° 0 mm 7 m/S 754 mmHg 87%
    04:00 -13°C° 0 mm 7 m/S 753 mmHg 88%
    05:00 -11°C° 0.5 mm 7 m/S 752 mmHg 90%
    06:00 -10°C° 0.5 mm 8 m/S 751 mmHg 92%
    07:00 -8°C° 0.5 mm 8 m/S 750 mmHg 93%
    08:00 -7°C° 0.7 mm 8 m/S 749 mmHg 91%
    09:00 -6°C° 0.7 mm 8 m/S 749 mmHg 88%
    10:00 -5°C° 0.7 mm 8 m/S 748 mmHg 86%
    11:00 -4°C° 0 mm 7 m/S 748 mmHg 86%
    12:00 -3°C° 0 mm 7 m/S 747 mmHg 87%
    13:00 -2°C° 0 mm 6 m/S 747 mmHg 88%
    14:00 -2°C° 0 mm 6 m/S 747 mmHg 87%
    15:00 -1°C° 0 mm 5 m/S 748 mmHg 86%
    16:00 -1°C° 0 mm 5 m/S 748 mmHg 84%
    17:00 -1°C° 0 mm 5 m/S 748 mmHg 85%
    18:00 -1°C° 0 mm 5 m/S 748 mmHg 86%
    19:00 -2°C° 0 mm 5 m/S 748 mmHg 86%
    20:00 -2°C° 0 mm 5 m/S 748 mmHg 87%
    21:00 -2°C° 0 mm 5 m/S 749 mmHg 87%
    22:00 -4°C° 0 mm 5 m/S 749 mmHg 88%
    23:00 -4°C° 0 mm 5 m/S 749 mmHg 88%

    übermorgen, 19 Februar, Mittwoch

    Zeit Temperatur Niederschläge Wind Luftdruck Luftfeuchtigkeit
    00:00 -4°C° 0 mm 5 m/S 748 mmHg 88%
    01:00 -4°C° 0 mm 5 m/S 748 mmHg 87%
    02:00 -4°C° 0 mm 5 m/S 748 mmHg 87%
    03:00 -4°C° 0 mm 5 m/S 748 mmHg 87%
    04:00 -4°C° 0 mm 5 m/S 748 mmHg 87%
    05:00 -4°C° 0 mm 5 m/S 748 mmHg 87%
    06:00 -4°C° 0 mm 5 m/S 748 mmHg 87%
    07:00 -4°C° 0 mm 5 m/S 748 mmHg 87%
    08:00 -2°C° 0 mm 5 m/S 748 mmHg 87%
    09:00 -2°C° 0 mm 5 m/S 748 mmHg 87%
    10:00 -2°C° 0 mm 6 m/S 748 mmHg 87%
    11:00 -1°C° 0 mm 5 m/S 748 mmHg 90%
    12:00 -1°C° 0 mm 5 m/S 748 mmHg 92%
    13:00 -1°C° 0 mm 5 m/S 748 mmHg 94%
    14:00 -1°C° 0.1 mm 5 m/S 748 mmHg 95%
    15:00 -1°C° 0.1 mm 5 m/S 748 mmHg 96%
    16:00 -1°C° 0.1 mm 5 m/S 749 mmHg 98%
    17:00 -1°C° 0.1 mm 5 m/S 749 mmHg 96%
    18:00 -1°C° 0.1 mm 5 m/S 748 mmHg 95%
    19:00 -1°C° 0.1 mm 5 m/S 748 mmHg 93%
    20:00 -2°C° 0 mm 5 m/S 749 mmHg 92%
    21:00 -2°C° 0 mm 5 m/S 749 mmHg 91%
    22:00 -3°C° 0 mm 4 m/S 749 mmHg 89%
    23:00 -3°C° 0 mm 4 m/S 749 mmHg 90%

    20 Februar, Donnerstag

    Zeit Temperatur Niederschläge Wind Luftdruck Luftfeuchtigkeit
    00:00 -3°C° 0 mm 4 m/S 749 mmHg 91%
    01:00 -4°C° 0 mm 3 m/S 749 mmHg 92%
    02:00 -4°C° 0 mm 3 m/S 749 mmHg 92%
    03:00 -5°C° 0 mm 3 m/S 749 mmHg 92%
    04:00 -5°C° 0 mm 3 m/S 750 mmHg 93%
    05:00 -5°C° 0 mm 3 m/S 750 mmHg 93%
    06:00 -5°C° 0 mm 3 m/S 750 mmHg 92%
    07:00 -5°C° 0 mm 3 m/S 750 mmHg 92%
    08:00 -4°C° 0 mm 3 m/S 750 mmHg 91%
    09:00 -2°C° 0 mm 3 m/S 751 mmHg 91%
    10:00 -2°C° 0 mm 3 m/S 751 mmHg 90%
    11:00 -1°C° 0 mm 3 m/S 751 mmHg 93%
    12:00 -1°C° 0 mm 3 m/S 751 mmHg 96%
    13:00 0°C° 0 mm 3 m/S 752 mmHg 99%
    14:00 0°C° 0 mm 3 m/S 752 mmHg 96%
    15:00 0°C° 0 mm 3 m/S 752 mmHg 94%
    16:00 0°C° 0 mm 3 m/S 752 mmHg 92%
    17:00 -1°C° 0 mm 3 m/S 752 mmHg 91%
    18:00 -4°C° 0 mm 3 m/S 753 mmHg 89%
    19:00 -5°C° 0 mm 3 m/S 753 mmHg 88%
    20:00 -6°C° 0 mm 3 m/S 753 mmHg 89%
    21:00 -6°C° 0 mm 3 m/S 754 mmHg 90%
    22:00 -7°C° 0 mm 3 m/S 754 mmHg 91%
    23:00 -7°C° 0 mm 3 m/S 754 mmHg 92%

    21 Februar, Freitag

    Zeit Temperatur Niederschläge Wind Luftdruck Luftfeuchtigkeit
    00:00 -7°C° 0 mm 3 m/S 754 mmHg 92%
    01:00 -8°C° 0 mm 3 m/S 754 mmHg 92%
    02:00 -8°C° 0 mm 3 m/S 754 mmHg 92%
    03:00 -8°C° 0 mm 3 m/S 755 mmHg 92%
    04:00 -8°C° 0 mm 3 m/S 755 mmHg 92%
    05:00 -7°C° 0 mm 3 m/S 755 mmHg 92%
    06:00 -8°C° 0 mm 4 m/S 755 mmHg 91%
    07:00 -8°C° 0 mm 4 m/S 756 mmHg 90%
    08:00 -7°C° 0 mm 4 m/S 756 mmHg 89%
    09:00 -5°C° 0 mm 4 m/S 756 mmHg 89%
    10:00 -4°C° 0 mm 4 m/S 756 mmHg 88%
    17:00 -2°C° 0 mm 3 m/S 758 mmHg 87%
    18:00 -2°C° 0 mm 2 m/S 758 mmHg 88%
    19:00 -2°C° 0 mm 2 m/S 758 mmHg 89%
    20:00 -3°C° 0 mm 2 m/S 759 mmHg 89%
    21:00 -3°C° 0 mm 2 m/S 759 mmHg 90%
    22:00 -3°C° 0 mm 2 m/S 759 mmHg 91%
    23:00 -4°C° 0 mm 2 m/S 759 mmHg 91%

    22 Februar, Samstag

    Zeit Temperatur Niederschläge Wind Luftdruck Luftfeuchtigkeit
    00:00 -4°C° 0 mm 2 m/S 759 mmHg 91%
    01:00 -5°C° 0 mm 2 m/S 759 mmHg 91%
    02:00 -6°C° 0 mm 2 m/S 759 mmHg 91%
    03:00 -7°C° 0 mm 2 m/S 759 mmHg 92%
    04:00 -8°C° 0 mm 2 m/S 760 mmHg 93%
    05:00 -8°C° 0 mm 2 m/S 760 mmHg 93%
    06:00 -9°C° 0 mm 2 m/S 760 mmHg 93%
    07:00 -9°C° 0 mm 2 m/S 760 mmHg 94%
    08:00 -7°C° 0 mm 1 m/S 760 mmHg 93%
    09:00 -6°C° 0 mm 1 m/S 760 mmHg 93%
    10:00 -4°C° 0 mm 1 m/S 760 mmHg 93%
    11:00 -3°C° 0 mm 1 m/S 760 mmHg 92%
    12:00 -2°C° 0 mm 1 m/S 760 mmHg 91%
    13:00 -1°C° 0 mm 1 m/S 760 mmHg 90%
    14:00 -1°C° 0 mm 1 m/S 760 mmHg 91%
    15:00 -1°C° 0 mm 1 m/S 760 mmHg 91%
    16:00 -1°C° 0 mm 1 m/S 760 mmHg 92%
    17:00 -2°C° 0 mm 1 m/S 760 mmHg 93%
    18:00 -2°C° 0 mm 1 m/S 760 mmHg 93%
    19:00 -3°C° 0 mm 1 m/S 761 mmHg 94%
    20:00 -3°C° 0 mm 1 m/S 761 mmHg 94%
    21:00 -3°C° 0 mm 1 m/S 761 mmHg 95%
    22:00 -3°C° 0 mm 1 m/S 760 mmHg 95%
    23:00 -3°C° 0 mm 1 m/S 760 mmHg 95%
    Mehr zeigen